RYR378 EDDC-EPSC

Flight info

Callsign RYR378
Flight time 0h 37m
Altitude 27000
Route OSKAN3D OSKAN DCT GERGA Y218 ALUKA DCT BODLA
Aircraft B738/M-SDE2E3FGHIRWXY/LB1

Departure

Time 2026-04-20 12:00
Airport Dresden Airport (EDDC)

Arrival

Time 2026-04-20 12:38
Airport Solidarity Szczecin–Goleniów Airport (EPSC)
Time Latitude Longitude Altitude Speed Heading
2026-04-20 11:42 51.12632 13.76390 747 ft 0 kts 131°
2026-04-20 11:51 51.12636 13.76383 748 ft 2 kts 130°
2026-04-20 11:51 51.12646 13.76363 749 ft 2 kts 129°
2026-04-20 11:52 51.12656 13.76342 751 ft 2 kts 128°
2026-04-20 11:52 51.12666 13.76321 750 ft 2 kts 125°
2026-04-20 11:52 51.12675 13.76299 750 ft 2 kts 120°
2026-04-20 11:52 51.12682 13.76276 752 ft 2 kts 108°
2026-04-20 11:53 51.12684 13.76251 752 ft 2 kts 65°
2026-04-20 11:53 51.12678 13.76237 751 ft 1 kts 40°
2026-04-20 11:53 51.12678 13.76236 751 ft 0 kts 40°
2026-04-20 11:55 51.12686 13.76246 752 ft 5 kts 40°
2026-04-20 11:55 51.12733 13.76310 751 ft 12 kts 40°
2026-04-20 11:55 51.12816 13.76422 753 ft 18 kts 40°
2026-04-20 11:55 51.12911 13.76558 751 ft 18 kts 41°
2026-04-20 11:56 51.13003 13.76684 751 ft 17 kts 40°
2026-04-20 11:56 51.13090 13.76801 749 ft 16 kts 40°
2026-04-20 11:56 51.13178 13.76922 746 ft 18 kts 41°
2026-04-20 11:56 51.13284 13.77068 741 ft 23 kts 41°
2026-04-20 11:57 51.13427 13.77265 732 ft 31 kts 41°
2026-04-20 11:57 51.13589 13.77487 724 ft 32 kts 41°
2026-04-20 11:57 51.13760 13.77723 712 ft 32 kts 40°
2026-04-20 11:57 51.13923 13.77949 712 ft 26 kts 40°
2026-04-20 11:58 51.14048 13.78120 717 ft 23 kts 41°
2026-04-20 11:58 51.14154 13.78268 701 ft 11 kts 40°
2026-04-20 11:58 51.14210 13.78344 707 ft 11 kts 36°
2026-04-20 11:58 51.14277 13.78331 705 ft 10 kts 319°
2026-04-20 11:59 51.14325 13.78248 706 ft 10 kts 310°
2026-04-20 11:59 51.14370 13.78163 698 ft 10 kts 303°
2026-04-20 11:59 51.14353 13.78068 698 ft 10 kts 223°
2026-04-20 11:59 51.14304 13.77998 696 ft 9 kts 221°
2026-04-20 12:00 51.14231 13.77897 714 ft 33 kts 221°
2026-04-20 12:00 51.13869 13.77399 725 ft 102 kts 221°
2026-04-20 12:00 51.13182 13.76449 781 ft 154 kts 224°
2026-04-20 12:00 51.12390 13.75283 1559 ft 153 kts 228°
2026-04-20 12:01 51.11619 13.74141 2415 ft 155 kts 228°
2026-04-20 12:01 51.10764 13.72905 2881 ft 179 kts 227°
2026-04-20 12:01 51.09766 13.71475 3200 ft 204 kts 227°
2026-04-20 12:01 51.08686 13.69949 3651 ft 216 kts 227°
2026-04-20 12:02 51.07542 13.68341 4196 ft 228 kts 226°
2026-04-20 12:02 51.06274 13.66556 4471 ft 255 kts 225°
2026-04-20 12:02 51.04914 13.64650 5071 ft 266 kts 224°
2026-04-20 12:02 51.03750 13.62406 5867 ft 264 kts 250°
2026-04-20 12:03 51.03486 13.59569 6622 ft 259 kts 281°
2026-04-20 12:03 51.04087 13.56911 7391 ft 257 kts 305°
2026-04-20 12:03 51.05312 13.54854 8076 ft 259 kts 326°
2026-04-20 12:03 51.06817 13.53222 8742 ft 266 kts 328°
2026-04-20 12:04 51.08361 13.51560 9484 ft 269 kts 327°
2026-04-20 12:04 51.09907 13.49844 10207 ft 273 kts 327°
2026-04-20 12:04 51.11505 13.48026 10486 ft 294 kts 326°
2026-04-20 12:04 51.13194 13.46059 10646 ft 315 kts 325°
2026-04-20 12:05 51.15014 13.43903 10822 ft 336 kts 325°
2026-04-20 12:05 51.16916 13.41633 11273 ft 345 kts 325°
2026-04-20 12:05 51.18951 13.39610 11844 ft 348 kts 340°
2026-04-20 12:05 51.21330 13.38905 12479 ft 350 kts
2026-04-20 12:06 51.23748 13.39503 13122 ft 355 kts 17°
2026-04-20 12:06 51.25968 13.41282 13849 ft 359 kts 31°
2026-04-20 12:06 51.28069 13.43483 14510 ft 362 kts 34°
2026-04-20 12:06 51.30148 13.45742 15363 ft 360 kts 35°
2026-04-20 12:07 51.32223 13.48002 16100 ft 362 kts 35°
2026-04-20 12:07 51.34322 13.50267 16727 ft 368 kts 34°
2026-04-20 12:07 51.36480 13.52574 17238 ft 375 kts 34°
2026-04-20 12:07 51.38637 13.54868 17970 ft 377 kts 34°
2026-04-20 12:08 51.40828 13.57193 18673 ft 378 kts 34°
2026-04-20 12:08 51.43026 13.59527 19308 ft 379 kts 35°
2026-04-20 12:08 51.45234 13.61851 19946 ft 380 kts 32°
2026-04-20 12:08 51.47682 13.63508 20526 ft 387 kts 16°
2026-04-20 12:09 51.50335 13.64389 21121 ft 389 kts 15°
2026-04-20 12:09 51.53000 13.65252 21664 ft 392 kts 15°
2026-04-20 12:09 51.55680 13.66133 22204 ft 394 kts 16°
2026-04-20 12:09 51.58374 13.67031 22747 ft 396 kts 16°
2026-04-20 12:10 51.61051 13.67934 23280 ft 398 kts 16°
2026-04-20 12:10 51.63766 13.68859 23772 ft 400 kts 17°
2026-04-20 12:10 51.66493 13.69794 24162 ft 403 kts 17°
2026-04-20 12:10 51.69248 13.70742 24532 ft 406 kts 16°
2026-04-20 12:11 51.72026 13.71702 24895 ft 410 kts 16°
2026-04-20 12:11 51.74832 13.72672 25196 ft 415 kts 16°
2026-04-20 12:11 51.77666 13.73653 25523 ft 418 kts 16°
2026-04-20 12:11 51.80525 13.74643 25903 ft 420 kts 16°
2026-04-20 12:12 51.83385 13.75634 26312 ft 421 kts 15°
2026-04-20 12:12 51.86253 13.76628 26800 ft 420 kts 15°
2026-04-20 12:12 51.89123 13.77625 27005 ft 423 kts 15°
2026-04-20 12:12 51.91992 13.78623 27012 ft 421 kts 15°
2026-04-20 12:13 51.94851 13.79618 26990 ft 420 kts 15°
2026-04-20 12:13 51.97708 13.80615 27013 ft 419 kts 15°
2026-04-20 12:13 52.00563 13.81613 27016 ft 420 kts 15°
2026-04-20 12:13 52.03426 13.82615 27025 ft 420 kts 15°
2026-04-20 12:14 52.06288 13.83619 27036 ft 422 kts 15°
2026-04-20 12:14 52.09162 13.84628 27030 ft 423 kts 15°
2026-04-20 12:14 52.12042 13.85640 27021 ft 423 kts 15°
2026-04-20 12:14 52.14954 13.86665 27026 ft 423 kts 15°
2026-04-20 12:15 52.17828 13.87677 27033 ft 422 kts 15°
2026-04-20 12:15 52.20699 13.88689 27028 ft 422 kts 14°
2026-04-20 12:15 52.23566 13.89702 27045 ft 421 kts 14°
2026-04-20 12:15 52.26398 13.90704 27042 ft 422 kts 14°
2026-04-20 12:16 52.29266 13.91719 27041 ft 421 kts 14°
2026-04-20 12:16 52.32139 13.92738 27045 ft 421 kts 14°
2026-04-20 12:16 52.35004 13.93756 27050 ft 421 kts 14°
2026-04-20 12:16 52.37876 13.94777 27047 ft 421 kts 14°
2026-04-20 12:17 52.40740 13.95797 27041 ft 418 kts 14°
2026-04-20 12:17 52.43565 13.96803 26721 ft 412 kts 14°
2026-04-20 12:17 52.46299 13.97778 26293 ft 404 kts 14°
2026-04-20 12:17 52.49022 13.98752 25821 ft 398 kts 14°
2026-04-20 12:18 52.51718 13.99717 25296 ft 394 kts 14°
2026-04-20 12:18 52.54387 14.00674 24783 ft 390 kts 14°
2026-04-20 12:18 52.57029 14.01622 24293 ft 387 kts 14°
2026-04-20 12:18 52.59627 14.02676 23791 ft 383 kts 19°
2026-04-20 12:19 52.62077 14.04342 23245 ft 378 kts 29°
2026-04-20 12:19 52.64348 14.06472 22704 ft 374 kts 31°
2026-04-20 12:19 52.66588 14.08624 22205 ft 370 kts 31°
2026-04-20 12:19 52.68806 14.10751 21707 ft 367 kts 31°
2026-04-20 12:20 52.71008 14.12849 21219 ft 363 kts 31°
2026-04-20 12:20 52.73191 14.14919 20729 ft 360 kts 31°
2026-04-20 12:20 52.75359 14.16970 20249 ft 357 kts 31°
2026-04-20 12:20 52.77510 14.19003 19773 ft 355 kts 31°
2026-04-20 12:21 52.79644 14.21022 19302 ft 352 kts 31°
2026-04-20 12:21 52.81768 14.23033 18833 ft 350 kts 31°
2026-04-20 12:21 52.83886 14.25028 18367 ft 348 kts 31°
2026-04-20 12:21 52.85991 14.27009 17851 ft 347 kts 31°
2026-04-20 12:22 52.88084 14.28977 17341 ft 344 kts 30°
2026-04-20 12:22 52.90270 14.30583 16873 ft 343 kts 21°
2026-04-20 12:22 52.92582 14.31535 16408 ft 343 kts 12°
2026-04-20 12:22 52.94931 14.32171 15946 ft 341 kts 12°
2026-04-20 12:23 52.97272 14.32775 15489 ft 339 kts 12°
2026-04-20 12:23 52.99600 14.33378 15037 ft 338 kts 12°
2026-04-20 12:23 53.01916 14.33987 14597 ft 336 kts 12°
2026-04-20 12:23 53.04213 14.34600 14156 ft 334 kts 12°
2026-04-20 12:24 53.06503 14.35217 13687 ft 332 kts 12°
2026-04-20 12:24 53.08780 14.35835 13210 ft 331 kts 12°
2026-04-20 12:24 53.11040 14.36451 12762 ft 328 kts 12°
2026-04-20 12:24 53.13286 14.37065 12299 ft 326 kts 13°
2026-04-20 12:25 53.15514 14.37675 11867 ft 323 kts 13°
2026-04-20 12:25 53.17705 14.38276 11438 ft 321 kts 13°
2026-04-20 12:25 53.19907 14.38881 10996 ft 320 kts 13°
2026-04-20 12:25 53.22083 14.39478 10799 ft 311 kts 13°
2026-04-20 12:26 53.24187 14.40054 10649 ft 301 kts 13°
2026-04-20 12:26 53.26228 14.40614 10516 ft 293 kts 13°
2026-04-20 12:26 53.28201 14.41172 10402 ft 283 kts 15°
2026-04-20 12:26 53.30112 14.41801 10232 ft 276 kts 16°
2026-04-20 12:27 53.31967 14.42443 10110 ft 268 kts 16°
2026-04-20 12:27 53.33770 14.43073 9968 ft 261 kts 16°
2026-04-20 12:27 53.35547 14.43692 9676 ft 260 kts 16°
2026-04-20 12:27 53.37317 14.44308 9395 ft 259 kts 17°
2026-04-20 12:28 53.39077 14.44918 9147 ft 258 kts 17°
2026-04-20 12:28 53.40833 14.45525 8870 ft 257 kts 17°
2026-04-20 12:28 53.42581 14.46129 8604 ft 256 kts 16°
2026-04-20 12:28 53.44330 14.46733 8331 ft 256 kts 17°
2026-04-20 12:29 53.46075 14.47335 8067 ft 255 kts 16°
2026-04-20 12:29 53.47795 14.47929 7814 ft 255 kts 16°
2026-04-20 12:29 53.49530 14.48528 7535 ft 254 kts 16°
2026-04-20 12:29 53.51259 14.49124 7272 ft 253 kts 16°
2026-04-20 12:30 53.52980 14.49719 7017 ft 253 kts 16°
2026-04-20 12:30 53.54704 14.50316 6751 ft 253 kts 16°
2026-04-20 12:30 53.56426 14.50912 6489 ft 253 kts 16°
2026-04-20 12:30 53.58149 14.51509 6204 ft 253 kts 16°
2026-04-20 12:31 53.59877 14.52108 5927 ft 253 kts 16°
2026-04-20 12:31 53.61019 14.52504 5741 ft 253 kts 16°
2026-04-20 12:31 53.62744 14.53101 5454 ft 253 kts 16°
2026-04-20 12:31 53.65043 14.53903 5100 ft 251 kts 18°
2026-04-20 12:32 53.66118 14.54560 4894 ft 246 kts 36°
2026-04-20 12:32 53.67421 14.56344 4654 ft 239 kts 44°
2026-04-20 12:32 53.68685 14.58181 4359 ft 239 kts 44°
2026-04-20 12:32 53.69919 14.60012 4091 ft 231 kts 50°
2026-04-20 12:33 53.70651 14.62294 3826 ft 217 kts 78°
2026-04-20 12:33 53.70693 14.64772 3565 ft 208 kts 97°
2026-04-20 12:33 53.70245 14.67042 3292 ft 203 kts 116°
2026-04-20 12:33 53.69392 14.68919 3064 ft 198 kts 126°
2026-04-20 12:34 53.68504 14.70654 2818 ft 192 kts 126°
2026-04-20 12:34 53.67644 14.72332 2615 ft 186 kts 126°
2026-04-20 12:34 53.66816 14.73946 2409 ft 178 kts 125°
2026-04-20 12:34 53.66020 14.75497 2179 ft 171 kts 125°
2026-04-20 12:35 53.65251 14.76996 1976 ft 166 kts 125°
2026-04-20 12:35 53.64525 14.78405 1772 ft 152 kts 124°
2026-04-20 12:35 53.63855 14.79713 1629 ft 144 kts 123°
2026-04-20 12:35 53.63204 14.80995 1410 ft 143 kts 124°
2026-04-20 12:36 53.62557 14.82251 1205 ft 140 kts 123°
2026-04-20 12:36 53.61935 14.83473 993 ft 139 kts 123°
2026-04-20 12:36 53.61289 14.84736 825 ft 148 kts 123°
2026-04-20 12:36 53.60621 14.86067 627 ft 149 kts 123°
2026-04-20 12:37 53.59934 14.87406 381 ft 152 kts 126°
2026-04-20 12:37 53.59229 14.88765 183 ft 151 kts 126°
2026-04-20 12:37 53.58551 14.90059 147 ft 141 kts 128°
2026-04-20 12:37 53.58040 14.91070 160 ft 83 kts 131°
2026-04-20 12:38 53.57811 14.91504 165 ft 25 kts 131°
2026-04-20 12:38 53.57774 14.91639 164 ft 10 kts 73°
2026-04-20 12:38 53.57820 14.91730 164 ft 10 kts 40°
2026-04-20 12:38 53.57882 14.91768 164 ft 10 kts 346°
2026-04-20 12:39 53.58005 14.91550 162 ft 17 kts 310°
2026-04-20 12:39 53.58095 14.91377 161 ft 22 kts 311°
2026-04-20 12:39 53.58203 14.91166 158 ft 26 kts 311°
2026-04-20 12:40 53.58329 14.90921 154 ft 29 kts 310°
2026-04-20 12:40 53.58467 14.90653 150 ft 30 kts 311°
2026-04-20 12:40 53.58606 14.90381 151 ft 30 kts 311°
2026-04-20 12:40 53.58742 14.90122 142 ft 29 kts 311°
2026-04-20 12:41 53.58866 14.89883 139 ft 20 kts 311°
2026-04-20 12:41 53.58952 14.89714 137 ft 19 kts 311°
2026-04-20 12:41 53.59034 14.89559 135 ft 15 kts 311°
2026-04-20 12:41 53.59097 14.89437 133 ft 13 kts 310°
2026-04-20 12:42 53.59149 14.89334 132 ft 6 kts 311°
2026-04-20 12:42 53.59186 14.89303 130 ft 6 kts
2026-04-20 12:42 53.59219 14.89347 130 ft 6 kts 48°
2026-04-20 12:42 53.59240 14.89388 129 ft 3 kts 49°
2026-04-20 12:43 53.59246 14.89398 131 ft 0 kts 49°